#timestamp,LO_Frequency,Hit,StdDev 
1669532415.6,286046998.7,N
1669532435.4,286046999.4,N
1669532455.2,286046992.2,N
1669532475.1,286046988.8,N
1669532495.8,286046983.1,N
1669532515.7,286046986.1,N
1669532535.5,286046990.2,N
1669532555.3,286046993.0,N
1669532575.2,286046988.8,N
1669532595.0,286046982.7,N
1669532595.9,286046982.7,N
1669532615.8,286046976.0,N
1669532635.6,286046972.5,N
1669532655.4,286046967.3,Y
1669532675.3,286046969.8,P
1669532695.1,286046964.0,N
1669532715.9,286046960.3,N
1669532735.7,286046955.8,Y
1669532755.5,286046982.7,P
1669532775.4,286046982.3,P
1669532795.2,286046980.0,P
1669532815.0,286046985.5,Y
1669532816.0,286046985.5,P
1669532835.8,286047012.4,P
1669532855.6,286047008.9,N
1669532875.5,286047012.8,N
1669532895.3,286047014.9,N
1669532915.2,286047016.3,N
1669532935.9,286047015.9,N
1669532955.7,286047018.6,N
1669532975.6,286047022.2,N
1669532995.4,286047024.7,N
1669533015.2,286047037.5,N
1669533035.1,286047034.2,N
1669533036.0,286047034.2,N
1669533055.8,286047026.7,N
1669533075.7,286047023.1,N
1669533095.5,286047017.6,N
1669533115.3,286047011.5,N
1669533135.2,286047013.5,N
1669533155.0,286047012.3,N
1669533155.9,286047012.3,N
1669533175.7,286047008.0,N
1669533195.6,286047011.7,N
1669533215.4,286047018.3,N
1669533235.3,286047018.2,N
1669533255.1,286047012.0,N
1669533256.0,286047012.0,N
1669533275.8,286047019.5,N
1669533295.7,286047024.9,N
1669533315.5,286047023.0,N
1669533335.3,286047025.3,N
1669533355.2,286047030.6,Y
1669533375.0,286047011.5,P
1669533375.9,286047011.5,P
1669533395.8,286047012.3,P
1669533415.6,286047012.4,Y
1669533435.4,286046993.0,P
1669533455.3,286046989.7,N
1669533475.1,286046992.9,N
1669533495.9,286046987.1,N
1669533515.7,286046983.0,N
1669533535.5,286046980.9,N
1669533555.4,286046977.7,N
1669533575.2,286046983.4,N
1669533595.0,286046984.3,N
1669533595.9,286046984.3,N
1669533615.8,286046995.5,N
1669533635.6,286046994.4,N
1669533655.5,286046993.1,N
1669533675.3,286046993.0,N
1669533695.1,286046991.0,N
1669533715.9,286046987.8,N
1669533735.7,286046990.4,N
1669533755.5,286046991.1,N
1669533775.4,286046986.9,N
1669533795.2,286046980.3,N
1669533815.1,286046975.6,Y
1669533816.0,286046975.6,P
1669533835.8,286046982.4,N
1669533855.6,286046983.3,P
1669533875.5,286046981.5,Y
1669533895.3,286046991.9,P
1669533915.1,286047004.4,N
1669533935.9,286047006.0,N
1669533955.7,286047002.8,N
1669533975.6,286046994.9,N
1669533995.4,286046994.2,N
1669534015.2,286046988.4,N
1669534035.1,286046986.8,N
1669534036.0,286046986.8,N
1669534055.8,286046983.3,N
1669534075.6,286046983.1,N
1669534095.5,286046983.2,N
1669534115.3,286046979.3,N
1669534135.2,286046988.6,N
1669534155.9,286046988.3,N
1669534175.7,286046985.6,N
1669534195.6,286046988.6,N
1669534215.4,286046986.1,N
1669534235.2,286046986.1,N
1669534255.1,286046995.6,N
1669534256.0,286046995.6,N
1669534275.8,286047011.0,N
1669534295.7,286047027.0,Y
1669534315.5,286047046.1,P
1669534335.3,286047063.1,N
1669534355.2,286047075.0,N
1669534375.0,286047084.9,N
1669534375.9,286047084.9,N
1669534395.7,286047088.0,N
1669534415.6,286047084.6,N
1669534435.4,286047085.0,N
1669534455.3,286047084.1,N
1669534475.1,286047073.9,N
1669534495.8,286047068.2,N
1669534515.7,286047062.7,N
1669534535.5,286047059.4,N
1669534555.4,286047055.0,N
1669534575.2,286047048.3,N
1669534595.0,286047046.6,N
1669534595.9,286047046.6,N
1669534615.8,286047049.5,N
1669534635.6,286047058.8,N
1669534655.4,286047054.6,N
1669534675.3,286047058.2,N
1669534695.1,286047061.9,N
1669534715.9,286047060.4,N
1669534735.7,286047054.0,N
1669534755.5,286047047.9,N
1669534775.4,286047042.9,N
1669534795.2,286047040.0,N
1669534815.1,286047047.1,N
1669534816.0,286047047.1,N
1669534835.8,286047048.5,N
1669534855.6,286047041.8,N
1669534875.5,286047043.4,N
1669534895.3,286047052.2,Y
1669534915.2,286046995.4,P
1669534935.9,286046995.9,N
1669534955.7,286046994.4,N
1669534975.6,286046993.8,N
1669534995.4,286046999.5,N
1669535015.2,286046995.9,N
1669535035.1,286046982.2,N
1669535036.0,286046982.2,N
1669535055.8,286046982.9,N
1669535075.7,286046980.7,N
1669535095.5,286046982.5,N
1669535115.3,286046983.0,N
1669535135.2,286046979.1,N
1669535155.0,286046983.7,N
1669535155.9,286046983.7,N
1669535175.7,286046988.1,N
1669535195.6,286046982.5,N
1669535215.4,286046981.3,N
1669535235.3,286046981.9,N
1669535255.1,286046981.4,N
1669535256.0,286046981.4,N
1669535275.8,286046979.5,N
1669535295.7,286046978.8,N
1669535315.5,286046974.5,N
1669535335.3,286046969.4,N
1669535355.2,286046969.2,N
1669535375.0,286046970.1,N
1669535375.9,286046970.1,N
1669535395.8,286046971.6,N
1669535415.6,286046966.5,N
1669535435.4,286046964.5,Y
1669535455.3,286046986.5,P
1669535475.1,286046988.5,P
1669535495.9,286046996.3,N
1669535515.7,286046994.6,N
1669535535.5,286046985.9,N
1669535555.4,286046989.0,N
1669535575.2,286046980.6,Y
1669535595.1,286046995.1,P
1669535596.0,286046995.1,N
1669535615.8,286046990.3,P
1669535635.6,286046984.2,Y
1669535655.5,286046988.5,P
1669535675.3,286046992.4,P
1669535695.1,286046997.7,N
1669535715.9,286046994.9,N
1669535735.7,286046995.8,N
1669535755.6,286046989.9,Y
1669535775.4,286046995.8,P
1669535795.2,286046997.0,N
1669535815.1,286046995.0,P
1669535816.0,286046995.0,Y
1669535835.8,286046999.5,P
1669535855.6,286046992.1,P
1669535875.5,286046992.4,N
1669535895.3,286046993.6,N
1669535915.2,286046992.2,N
1669535935.0,286046985.7,Y
1669535935.9,286046985.7,P
1669535955.8,286046997.3,N
1669535975.6,286046999.2,N
1669535995.4,286047000.1,N
